Regional Weather Roundup
Issued by NWS

Home | Current Version | Previous Version | Graphics & Text | Print | Product List | Glossary On
Versions: 1 2 3 4 5 6 7 8 9 10 11 12 13 14 15 16 17 18 19 20 21 22 23 24 25 26 27 28 29 30 31 32 33 34 35 36 37 38 39 40 41 42 43 44 45 46 47 48 49 50
000
ASUS43 KLMK 260710
RWRKY
KENTUCKY REGIONAL WEATHER ROUNDUP
NATIONAL WEATHER SERVICE LOUISVILLE KY
300 AM EDT SAT JUL 26 2014

NOTE "FAIR" INDICATES FEW OR NO CLOUDS BELOW 12,000 FEET
WITH NO SIGNIFICANT WEATHER AND/OR OBSTRUCTIONS TO VISIBILITY.

KYZ001>023-026-027-061>063-070>075-260800-
WESTERN AND SOUTH CENTRAL KENTUCKY

CITY           SKY/WX    TMP DP  RH WIND       PRES   REMARKS
PADUCAH        CLEAR     67  63  87 SE3       29.98F
HENDERSON      CLEAR     59  55  88 CALM      29.99F
OWENSBORO      CLEAR     63  60  90 CALM      30.00F
HOPKINSVILLE   CLEAR     67  65  93 CALM      30.01S
BOWLING GREEN  CLEAR     71  61  70 CALM      30.02F
GLASGOW        PTCLDY    66  60  80 CALM      30.02F
$$

KYZ024-025-028>034-038-045-046-053-260800-
NORTH CENTRAL KENTUCKY

CITY           SKY/WX    TMP DP  RH WIND       PRES   REMARKS
LOUISVILLE/SDF PTCLDY    71  61  70 SW5       30.00F
LOUISVILLE/LOU PTCLDY    71  61  70 S3        30.01F
FORT KNOX      CLEAR     63  61  91 CALM      30.00F
$$

KYZ035>037-039>044-047>052-055>060-089>105-260800-
NORTHEAST KENTUCKY

CITY           SKY/WX    TMP DP  RH WIND       PRES   REMARKS
LEXINGTON      MOCLDY    68  62  81 S3        30.03F
COVINGTON      CLOUDY    67  62  84 S5        30.00F
FRANKFORT      MOCLDY    68  61  78 CALM      30.01F
$$

KYZ054-064>069-076>088-106>120-260800-
SOUTHEAST KENTUCKY

CITY           SKY/WX    TMP DP  RH WIND       PRES   REMARKS
JACKSON        CLOUDY    64  59  83 CALM      30.04F
LONDON         CLEAR     64  61  90 CALM      30.04F FOG
SOMERSET       PTCLDY    61  61 100 CALM      30.05F
MIDDLESBORO    PTCLDY    62  61  97 CALM      30.06F
MONTICELLO     SUNNY     61  60  96 CALM      30.05F FOG
$$




USA.gov is the U.S. government's official web portal to all federal, state and local government web resources and services.